EW6171 Weather Reports


Display with metric or nautical units.
time (UTC)temp
F
wind
direction
speed
MPH
gust
MPH
rain 1hr
in
rain 24hr
in
rain mn
in
humidity
%
barometer
mb
20260503200620 0 186 11.0 15.0 0.00 0.00 0.00 1017.6
20260503195845 0 10 11.0 15.0 0.00 0.00 0.00 1017.8
20260503195336 0 10 10.0 15.0 0.00 0.00 0.00 1017.8
20260503194824 0 181 10.0 15.0 0.00 0.00 0.00 1017.9
20260503194313 0 154 11.0 15.0 0.00 0.00 0.00 1018.0
20260503193803 0 10 10.0 15.0 0.00 0.00 0.00 1017.9
20260503193259 0 10 9.0 16.0 0.00 0.00 0.00 1018.0
20260503192747 0 217 10.0 14.0 0.00 0.00 0.00 1018.1
20260503192237 0 10 10.0 14.0 0.00 0.00 0.00 1018.1
20260503191718 0 10 10.0 13.0 0.00 0.00 0.00 1018.1
20260503191205 0 10 9.0 13.0 0.00 0.00 0.00 1018.2
20260503190656 0 10 9.0 12.0 0.00 0.00 0.00 1018.4
20260503190155 0 10 8.0 13.0 0.00 0.00 0.00 1018.4
20260503185644 0 10 8.0 13.0 0.00 0.00 0.00 1018.4
20260503185133 0 210 8.0 12.0 0.00 0.00 0.00 1018.4
20260503184624 0 10 9.0 13.0 0.00 0.00 0.00 1018.5
20260503184113 0 10 8.0 13.0 0.00 0.00 0.00 1018.6
20260503183605 0 10 7.0 11.0 0.00 0.00 0.00 1018.8
20260503183053 0 10 8.0 12.0 0.00 0.00 0.00 1018.9
20260503182544 0 10 7.0 12.0 0.00 0.00 0.00 1018.9
20260503182034 0 203 7.0 11.0 0.00 0.00 0.00 1019.0
20260503181523 0 203 7.0 11.0 0.00 0.00 0.00 1019.1
20260503181244 0 10 7.0 11.0 0.00 0.00 0.00 1019.2
20260503175946 0 10 7.0 12.0 0.00 0.00 0.00 1019.2
20260503175435 0 10 5.0 11.0 0.00 0.00 0.00 1019.4
20260503174925 0 138 4.0 12.0 0.00 0.00 0.00 1019.4
20260503174415 0 198 5.0 12.0 0.00 0.00 0.00 1019.5
20260503173905 0 88 7.0 11.0 0.00 0.00 0.00 1019.7
20260503173355 0 90 6.0 11.0 0.00 0.00 0.00 1019.8
20260503172848 0 93 6.0 11.0 0.00 0.00 0.00 1019.9
20260503172338 0 78 7.0 11.0 0.00 0.00 0.00 1020.0
20260503171830 0 65 6.0 11.0 0.00 0.00 0.00 1020.0
20260503171319 0 87 4.0 11.0 0.00 0.00 0.00 1020.1
20260503170809 0 104 5.0 10.0 0.00 0.00 0.00 1020.1
20260503170259 0 97 7.0 11.0 0.00 0.00 0.00 1020.2
20260503160105 0 73 4.0 8.0 0.00 0.00 0.00 1020.4
20260503150849 0 10 5.0 9.0 0.00 0.00 0.00 1020.2
20260503150345 0 111 3.0 9.0 0.00 0.00 0.00 1020.1
20260503140239 0 59 0.0 2.0 0.00 0.00 0.00 1019.7
20260503131200 0 352 0.0 2.0 0.00 0.00 0.00 1019.6
20260503130655 0 348 0.0 2.0 0.00 0.00 0.00 1019.5
20260503130152 0 27 0.0 2.0 0.00 0.00 0.00 1019.4
20260503110445 0 0 0.0 0.0 0.00 0.00 0.00 1018.5
20260503081431 0 316 0.0 0.0 0.00 0.00 0.00 1018.5
20260503080930 0 316 0.0 0.0 0.00 0.00 0.00 1018.3
20260503080418 0 316 0.0 0.0 0.00 0.00 0.00 1018.3
20260503080139 0 316 0.0 0.0 0.00 0.00 0.00 1018.3
20260503072809 0 312 0.0 0.0 0.00 0.00 0.00 1018.5
20260503072251 0 312 0.0 0.0 0.00 0.00 0.00 1018.4
20260503071740 0 312 0.0 0.0 0.00 0.00 0.00 1018.5
20260503071501 0 312 0.0 1.0 0.00 0.00 0.00 1018.6
20260503070951 0 317 0.0 1.0 0.00 0.00 0.00 1018.6
20260503070211 0 333 0.0 1.0 0.00 0.00 0.00 1018.5
20260503055003 0 333 0.0 0.0 0.00 0.00 0.00 1018.3
20260503054452 0 333 0.0 0.0 0.00 0.00 0.00 1018.3
20260503053941 0 333 0.0 0.0 0.00 0.00 0.00 1018.2
20260503053430 0 333 0.0 0.0 0.00 0.00 0.00 1018.1
20260503052919 0 333 0.0 0.0 0.00 0.00 0.00 1018.1
20260503052409 0 333 0.0 0.0 0.00 0.00 0.00 1018.2
20260503052129 0 333 0.0 0.0 0.00 0.00 0.00 1018.2
20260503050833 0 332 0.0 2.0 0.00 0.00 0.00 1018.1
20260503050322 0 333 1.0 3.0 0.00 0.00 0.00 1018.0
20260503045818 0 334 2.0 3.0 0.00 0.00 0.00 1017.9
20260503045310 0 341 2.0 3.0 0.00 0.00 0.00 1017.9
20260503044804 0 341 1.0 3.0 0.00 0.00 0.00 1017.8
20260503044524 0 349 1.0 2.0 0.00 0.00 0.00 1017.8
20260503043744 0 349 1.0 2.0 0.00 0.00 0.00 1017.8
20260503043235 0 10 0.0 2.0 0.00 0.00 0.00 1017.8
20260503042732 0 346 1.0 3.0 0.00 0.00 0.00 1017.8
20260503042221 0 10 2.0 3.0 0.00 0.00 0.00 1017.8
20260503041712 0 346 2.0 3.0 0.00 0.00 0.00 1017.7
20260503041159 0 10 2.0 4.0 0.00 0.00 0.00 1017.7
20260503040652 0 10 3.0 4.0 0.00 0.00 0.00 1017.7
20260503040135 0 10 3.0 4.0 0.00 0.00 0.00 1017.8
20260503035632 0 10 2.0 4.0 0.00 0.00 0.00 1017.7
20260503035348 0 337 1.0 3.0 0.00 0.00 0.00 1017.7
20260503034605 0 335 0.0 3.0 0.00 0.00 0.00 1017.7
20260503034058 0 334 0.0 3.0 0.00 0.00 0.00 1017.7
20260503033600 0 10 0.0 2.0 0.00 0.00 0.00 1017.5
20260503033053 0 339 0.0 2.0 0.00 0.00 0.00 1017.5
20260503032547 0 339 1.0 3.0 0.00 0.00 0.00 1017.4
20260503032041 0 339 2.0 3.0 0.00 0.00 0.00 1017.4
20260503031537 0 342 2.0 3.0 0.00 0.00 0.00 1017.3
20260503031031 0 346 2.0 3.0 0.00 0.00 0.00 1017.2
20260503030520 0 348 2.0 3.0 0.00 0.00 0.00 1017.2
20260503030012 0 353 1.0 3.0 0.00 0.00 0.00 1017.1
20260503025507 0 351 0.0 2.0 0.00 0.00 0.00 1017.1
20260503025001 0 350 1.0 2.0 0.00 0.00 0.00 1017.1
20260503024717 0 356 2.0 3.0 0.00 0.00 0.00 1017.0
20260503023944 0 353 2.0 3.0 0.00 0.00 0.00 1017.0
20260503023716 0 351 2.0 4.0 0.00 0.00 0.00 1016.9
20260503022939 0 10 1.0 4.0 0.00 0.00 0.00 1016.8
20260503022434 0 5 2.0 3.0 0.00 0.00 0.00 1016.8
20260503022157 0 10 2.0 4.0 0.00 0.00 0.00 1016.8
20260503021419 0 10 3.0 4.0 0.00 0.00 0.00 1016.7
20260503020906 0 342 3.0 4.0 0.00 0.00 0.00 1016.8
20260503020402 0 344 2.0 3.0 0.00 0.00 0.00 1016.8
20260503020125 0 10 1.0 3.0 0.00 0.00 0.00 1016.9
20260503015346 0 357 0.0 3.0 0.00 0.00 0.00 1016.8
20260503014839 0 357 0.0 1.0 0.00 0.00 0.00 1016.7
20260503014332 0 10 0.0 1.0 0.00 0.00 0.00 1016.7
20260503014058 0 10 0.0 1.0 0.00 0.00 0.00 1016.7
20260503013317 0 15 0.0 1.0 0.00 0.00 0.00 1016.7
20260503012806 0 21 0.0 1.0 0.00 0.00 0.00 1016.6
20260503012535 0 21 0.0 1.0 0.00 0.00 0.00 1016.6
20260503011750 0 21 0.0 1.0 0.00 0.01 0.00 1016.5
20260503011232 0 21 0.0 1.0 0.00 0.01 0.00 1016.6
20260503010953 0 21 0.0 0.0 0.00 0.01 0.00 1016.5
20260503010212 0 22 0.0 3.0 0.00 0.01 0.00 1016.5
20260503005703 0 29 0.0 3.0 0.00 0.01 0.00 1016.5
20260503005424 0 25 0.0 1.0 0.00 0.01 0.00 1016.5
20260503004642 0 15 0.0 3.0 0.00 0.01 0.00 1016.5
20260503004132 0 24 0.0 3.0 0.00 0.01 0.00 1016.3
20260503003622 0 19 0.0 3.0 0.00 0.01 0.00 1016.3
20260503003343 0 24 1.0 4.0 0.00 0.01 0.00 1016.3
20260503002602 0 45 2.0 8.0 0.00 0.02 0.00 1016.2
20260503002052 0 28 4.0 8.0 0.00 0.03 0.00 1016.1
20260503001542 0 10 3.0 9.0 0.00 0.04 0.00 1016.1
20260503001033 0 10 3.0 9.0 0.00 0.05 0.00 1016.1
20260503000523 0 31 4.0 9.0 0.00 0.05 0.00 1016.1
20260503000012 0 10 5.0 11.0 0.00 0.06 0.00 1016.1
20260502235504 0 10 5.0 11.0 0.00 0.07 0.00 1016.1
20260502234955 0 10 5.0 10.0 0.00 0.08 0.00 1016.1
20260502234451 0 10 7.0 10.0 0.00 0.08 0.00 1015.9
20260502233940 0 10 8.0 14.0 0.00 0.08 0.00 1016.0
20260502233428 0 10 9.0 14.0 0.00 0.08 0.00 1015.9
20260502232918 0 56 8.0 12.0 0.00 0.08 0.00 1015.9
20260502232408 0 54 5.0 11.0 0.00 0.09 0.00 1015.9
20260502231858 0 21 6.0 11.0 0.00 0.10 0.00 1015.7
20260502231348 0 47 7.0 11.0 0.00 0.13 0.00 1015.7
20260502230830 0 51 7.0 11.0 0.00 0.18 0.00 1015.7
20260502230320 0 10 8.0 12.0 0.00 0.19 0.00 1015.8
20260502225810 0 54 7.0 11.0 0.00 0.19 0.00 1015.7
20260502225258 0 51 7.0 13.0 0.00 0.19 0.00 1015.6
20260502224749 0 10 7.0 13.0 0.00 0.22 0.00 1015.6
20260502224238 0 49 6.0 12.0 0.00 0.36 0.00 1015.6
20260502223728 0 10 8.0 14.0 0.00 0.36 0.00 1015.5
20260502223447 0 21 8.0 15.0 0.00 0.36 0.00 1015.5
20260502222704 0 46 7.0 15.0 0.00 0.36 0.00 1015.5
20260502222153 0 22 8.0 14.0 0.00 0.36 0.00 1015.5
20260502221642 0 10 7.0 14.0 0.00 0.36 0.00 1015.5
20260502221132 0 10 7.0 14.0 0.00 0.36 0.00 1015.5
20260502220622 0 59 8.0 14.0 0.00 0.36 0.00 1015.6
20260502220112 0 10 8.0 14.0 0.00 0.36 0.00 1015.5
20260502215602 0 15 8.0 14.0 0.00 0.36 0.00 1015.6
20260502215052 0 10 7.0 13.0 0.00 0.36 0.00 1015.6
20260502214543 0 10 8.0 14.0 0.00 0.36 0.00 1015.6
20260502214033 0 5 8.0 14.0 0.00 0.36 0.00 1015.6
20260502213523 0 48 10.0 13.0 0.00 0.36 0.00 1015.7
20260502213242 0 10 10.0 14.0 0.00 0.36 0.00 1015.7
20260502212500 0 10 9.0 14.0 0.00 0.36 0.00 1015.8
20260502211943 0 27 9.0 13.0 0.00 0.36 0.00 1015.9
20260502211432 0 10 10.0 15.0 0.00 0.36 0.00 1015.9
20260502210922 0 57 10.0 15.0 0.00 0.36 0.00 1015.9
20260502210413 0 59 9.0 15.0 0.00 0.36 0.00 1015.9
20260502205855 0 10 11.0 15.0 0.00 0.36 0.00 1016.0
20260502205344 0 38 11.0 15.0 0.00 0.36 0.00 1016.0
20260502204835 0 59 10.0 15.0 0.00 0.36 0.00 1016.1
20260502204324 0 24 10.0 15.0 0.00 0.36 0.00 1016.0
20260502203815 0 47 10.0 15.0 0.00 0.36 0.00 1016.1
20260502203257 0 5 9.0 15.0 0.00 0.36 0.00 1016.0
20260502202747 0 5 10.0 15.0 0.00 0.37 0.00 1016.2
20260502202236 0 15 10.0 15.0 0.00 0.37 0.00 1016.2
20260502201737 0 10 9.0 14.0 0.00 0.37 0.00 1016.2
20260502201226 0 20 11.0 16.0 0.00 0.37 0.00 1016.2